Kelso-Longview, WA
on Tuesday, November 20, 2012

Tuesday
Previous Day Next Day
Daily Summary
 ActualAverage (KSPB)Record (KSPB)
Temperature
Mean Temperature °F °F  
Max Temperature 55°F °F 64°F (2002)
Min Temperature 46°F °F 22°F (2011)
Degree Days
Heating Degree Days 14    
Month to date heating degree days  
Since 1 July heating degree days  
Cooling Degree Days 0    
Month to date cooling degree days  
Year to date cooling degree days  
Moisture
Dew Point 43°F   
Average Humidity 75    
Maximum Humidity 87    
Minimum Humidity 62    
Precipitation
Precipitation 0.35 in in 0.42 in (2008)
Month to date precipitation  
Year to date precipitation  
Wind
Wind Speed 9 mph   
Max Wind Speed 15 mph   
Max Gust Speed 28 mph   
Visibility 10 miles   
Events     

Key: T is trace of precipitation, MM is missing value
Source: NWS Daily Summary
Time(PST)TemperatureDew PointHumidity Pressure Visibility Wind DirectionWind SpeedGust SpeedPrecipitationEvents Conditions
12:15 AM 51.8°F 46.4°F 82% 29.72 in 10.0 miles SSE 8.1 mph - N/A   Overcast
12:35 AM 51.8°F 46.4°F 82% 29.72 in 10.0 miles SE 10.4 mph - N/A   Overcast
12:55 AM 51.8°F 46.4°F 82% 29.71 in 10.0 miles SE 8.1 mph - N/A   Mostly Cloudy
1:15 AM 51.8°F 44.6°F 76% 29.71 in 10.0 miles SSE 9.2 mph - N/A   Mostly Cloudy
1:35 AM 51.8°F 44.6°F 76% 29.71 in 10.0 miles SSE 11.5 mph - N/A   Overcast
1:55 AM 51.8°F 44.6°F 76% 29.70 in 10.0 miles SE 10.4 mph - N/A   Scattered Clouds
2:15 AM 51.8°F 44.6°F 76% 29.70 in 10.0 miles SE 6.9 mph - N/A   Mostly Cloudy
2:35 AM 51.8°F 44.6°F 76% 29.71 in 10.0 miles SSE 6.9 mph - N/A   Overcast
2:55 AM 51.8°F 44.6°F 76% 29.72 in 10.0 miles SSE 6.9 mph - N/A   Overcast
3:15 AM 51.8°F 44.6°F 76% 29.71 in 10.0 miles ESE 3.5 mph - N/A   Mostly Cloudy
3:35 AM 51.8°F 46.4°F 82% 29.70 in 10.0 miles SSE 4.6 mph - N/A   Overcast
4:15 AM 50.0°F 46.4°F 87% 29.68 in 10.0 miles SE 3.5 mph - N/A   Overcast
4:35 AM 51.8°F 46.4°F 82% 29.68 in 10.0 miles SSE 8.1 mph - N/A   Overcast
4:55 AM 51.8°F 44.6°F 76% 29.69 in 10.0 miles South 4.6 mph - N/A   Overcast
5:15 AM 51.8°F 44.6°F 76% 29.69 in 10.0 miles SSE 8.1 mph - N/A   Overcast
5:35 AM 51.8°F 44.6°F 76% 29.67 in 10.0 miles SSE 4.6 mph - N/A   Overcast
5:55 AM 51.8°F 44.6°F 76% 29.67 in 10.0 miles SE 6.9 mph 19.6 mph N/A   Overcast
6:15 AM 51.8°F 44.6°F 76% 29.66 in 10.0 miles SSE 15.0 mph 24.2 mph N/A   Overcast
6:35 AM 51.8°F 42.8°F 71% 29.65 in 10.0 miles SE 10.4 mph 18.4 mph N/A   Overcast
6:55 AM 51.8°F 42.8°F 71% 29.64 in 10.0 miles ESE 10.4 mph 16.1 mph N/A   Overcast
7:15 AM 51.8°F 42.8°F 71% 29.62 in 10.0 miles SE 9.2 mph 18.4 mph N/A   Overcast
7:35 AM 51.8°F 42.8°F 71% 29.61 in 10.0 miles ESE 4.6 mph - N/A   Overcast
7:55 AM 51.8°F 41.0°F 67% 29.60 in 10.0 miles East 11.5 mph 16.1 mph N/A   Overcast
8:15 AM 51.8°F 41.0°F 67% 29.58 in 10.0 miles SE 15.0 mph 20.7 mph N/A   Overcast
8:35 AM 50.0°F 42.8°F 76% 29.57 in 10.0 miles SE 13.8 mph 23.0 mph N/A   Overcast
8:55 AM 50.0°F 42.8°F 76% 29.56 in 10.0 miles SSE 9.2 mph 26.5 mph N/A   Overcast
9:15 AM 50.0°F 42.8°F 76% 29.55 in 10.0 miles SSE 9.2 mph - N/A   Overcast
9:35 AM 50.0°F 44.6°F 82% 29.56 in 9.0 miles South 12.7 mph - 0.02 in   Overcast
9:55 AM 48.2°F 44.6°F 87% 29.59 in 10.0 miles South 12.7 mph 17.3 mph 0.05 in   Overcast
10:15 AM 48.2°F 44.6°F 87% 29.59 in 10.0 miles SSE 11.5 mph 16.1 mph 0.05 in   Overcast
10:35 AM 48.2°F 44.6°F 87% 29.60 in 9.0 miles SE 13.8 mph - 0.11 in   Overcast
10:55 AM 48.2°F 44.6°F 87% 29.59 in 10.0 miles SSE 11.5 mph - 0.13 in   Mostly Cloudy
11:15 AM 51.8°F 46.4°F 82% 29.59 in 10.0 miles SSE 15.0 mph - N/A   Scattered Clouds
11:35 AM 53.6°F 46.4°F 77% 29.59 in 10.0 miles SSE 13.8 mph 19.6 mph N/A   Partly Cloudy
11:55 AM 53.6°F 46.4°F 77% 29.60 in 10.0 miles South 10.4 mph 18.4 mph N/A   Mostly Cloudy
12:15 PM 53.6°F 46.4°F 77% 29.60 in 10.0 miles South 12.7 mph 18.4 mph N/A   Mostly Cloudy
12:35 PM 53.6°F 46.4°F 77% 29.62 in 10.0 miles SSW 9.2 mph - N/A   Overcast
12:55 PM 48.2°F 42.8°F 82% 29.63 in 7.0 miles SSW 8.1 mph 27.6 mph 0.16 in   Overcast
1:15 PM 50.0°F 42.8°F 76% 29.64 in 10.0 miles SSW 12.7 mph 18.4 mph 0.01 in   Mostly Cloudy
1:35 PM 51.8°F 42.8°F 71% 29.65 in 10.0 miles South 8.1 mph - 0.01 in   Overcast
1:55 PM 53.6°F 42.8°F 67% 29.66 in 10.0 miles SSE 4.6 mph - 0.01 in   Mostly Cloudy
2:15 PM 55.4°F 42.8°F 63% 29.66 in 10.0 miles SE 6.9 mph - N/A   Overcast
2:35 PM 53.6°F 42.8°F 67% 29.67 in 10.0 miles SSE 6.9 mph - N/A   Overcast
2:55 PM 53.6°F 42.8°F 67% 29.67 in 10.0 miles SSE 4.6 mph - N/A   Overcast
3:15 PM 53.6°F 42.8°F 67% 29.69 in 10.0 miles South 9.2 mph - N/A   Overcast
3:35 PM 53.6°F 41.0°F 62% 29.69 in 10.0 miles SSE 8.1 mph 20.7 mph N/A   Overcast
3:55 PM 51.8°F 41.0°F 67% 29.70 in 10.0 miles South 9.2 mph - N/A   Mostly Cloudy
4:15 PM 51.8°F 41.0°F 67% 29.69 in 10.0 miles ESE 6.9 mph - N/A   Scattered Clouds
4:35 PM 50.0°F 41.0°F 71% 29.70 in 10.0 miles Calm Calm - N/A   Mostly Cloudy
4:55 PM 48.2°F 42.8°F 82% 29.70 in 10.0 miles ESE 4.6 mph - N/A   Mostly Cloudy
5:15 PM 50.0°F 42.8°F 76% 29.70 in 10.0 miles SE 8.1 mph - N/A   Partly Cloudy
5:35 PM 48.2°F 41.0°F 76% 29.70 in 10.0 miles SE 6.9 mph - N/A   Partly Cloudy
5:55 PM 48.2°F 39.2°F 71% 29.71 in 10.0 miles SE 6.9 mph - N/A   Mostly Cloudy
6:15 PM 50.0°F 39.2°F 66% 29.71 in 10.0 miles SE 5.8 mph - N/A   Overcast
6:35 PM 48.2°F 39.2°F 71% 29.70 in 10.0 miles ESE 9.2 mph - N/A   Scattered Clouds
6:55 PM 48.2°F 39.2°F 71% 29.70 in 10.0 miles ESE 9.2 mph - N/A   Clear
7:15 PM 48.2°F 39.2°F 71% 29.71 in 10.0 miles ESE 8.1 mph - N/A   Scattered Clouds
7:35 PM 48.2°F 39.2°F 71% 29.71 in 10.0 miles SE 9.2 mph - N/A   Overcast
7:55 PM 48.2°F 39.2°F 71% 29.69 in 10.0 miles ESE 8.1 mph 17.3 mph N/A   Overcast
8:15 PM 48.2°F 39.2°F 71% 29.68 in 10.0 miles SE 9.2 mph - N/A   Overcast
8:35 PM 48.2°F 39.2°F 71% 29.68 in 10.0 miles SE 8.1 mph - N/A   Overcast
8:55 PM 48.2°F 39.2°F 71% 29.67 in 10.0 miles SE 5.8 mph - N/A   Overcast
9:15 PM 48.2°F 39.2°F 71% 29.67 in 10.0 miles SE 5.8 mph - N/A   Overcast
9:35 PM 48.2°F 39.2°F 71% 29.66 in 10.0 miles SE 9.2 mph - N/A   Overcast
9:55 PM 48.2°F 39.2°F 71% 29.66 in 10.0 miles SE 10.4 mph 16.1 mph N/A   Overcast
10:15 PM 48.2°F 39.2°F 71% 29.65 in 10.0 miles SE 8.1 mph 18.4 mph N/A   Overcast
10:35 PM 46.4°F 39.2°F 76% 29.64 in 10.0 miles SE 5.8 mph - N/A   Overcast
10:55 PM 46.4°F 39.2°F 76% 29.62 in 10.0 miles SE 8.1 mph - N/A   Overcast
11:15 PM 46.4°F 39.2°F 76% 29.59 in 10.0 miles SSE 6.9 mph - N/A   Overcast
11:35 PM 46.4°F 39.2°F 76% 29.59 in 10.0 miles South 8.1 mph - N/A   Overcast
11:55 PM 46.4°F 41.0°F 81% 29.58 in 10.0 miles SSE 3.5 mph - N/A   Overcast
Moon Phase
Nov. 20 Nov. 28 Dec. 06 Dec. 13 Dec. 20
Sunrise:07:20 AM (PST) Moon Rise:12:45 PM (PST)
Sunset:04:34 PM (PST) Moon Set:No Moon Set/

Copyright © 2014 The Weather Underground, Inc.